User: anonymous   Login
Location: Blandford
(50.8667°N, 2.1667°W)
Time: 13:58:23
(UTC+00:00)
Language:

ERS-1 Rocket - Orbit

View from above orbital plane
View from above orbital plane
View from above satellite
View from above satellite

Ground track
Ground track

The orbit data is extracted from the following two-line orbital elements,

1 21610U 91050F   20192.11370142 -.00000001  00000-0  13449-4 0  9995
2 21610  98.4641 261.1222 0003322 170.0063 248.1397 14.40908005521246
Epoch (UTC): 10 July 2020 02:43:43
Eccentricity: 0.0003322
inclination: 98.4641°
perigee height: 753 km
apogee height: 758 km
right ascension of ascending node: 261.1222°
argument of perigee: 170.0063°
revolutions per day: 14.40908005
mean anomaly at epoch: 248.1397°
orbit number at epoch: 52124

The dashed part of the orbit path shows where the satellite is in the earth's shadow,  

DLR